Year,Month,Day,Hour,Minute,Value (Times are PST for temperature in C)
2013,08,26,00,00,11.80
2013,08,26,00,01,11.80
2013,08,26,00,02,11.70
2013,08,26,00,03,11.70
2013,08,26,00,04,11.70
2013,08,26,00,05,11.70
2013,08,26,00,06,11.70
2013,08,26,00,07,11.70
2013,08,26,00,08,11.70
2013,08,26,00,09,11.70
2013,08,26,00,10,11.70
2013,08,26,00,11,11.70
2013,08,26,00,12,11.70
2013,08,26,00,13,11.60
2013,08,26,00,14,11.60
2013,08,26,00,15,11.60
2013,08,26,00,16,11.60
2013,08,26,00,17,11.60
2013,08,26,00,18,11.60
2013,08,26,00,19,11.60
2013,08,26,00,20,11.60
2013,08,26,00,21,11.50
2013,08,26,00,22,11.50
2013,08,26,00,23,11.50
2013,08,26,00,24,11.40
2013,08,26,00,25,11.40
2013,08,26,00,26,11.40
2013,08,26,00,27,11.40
2013,08,26,00,28,11.40
2013,08,26,00,29,11.40
2013,08,26,00,30,11.40
2013,08,26,00,31,11.40
2013,08,26,00,32,11.40
2013,08,26,00,33,11.40
2013,08,26,00,34,11.40
2013,08,26,00,35,11.40
2013,08,26,00,36,11.40
2013,08,26,00,37,11.30
2013,08,26,00,38,11.30
2013,08,26,00,39,11.30
2013,08,26,00,40,11.30
2013,08,26,00,41,11.30
2013,08,26,00,42,11.30
2013,08,26,00,43,11.30
2013,08,26,00,44,11.30
2013,08,26,00,45,11.30
2013,08,26,00,46,11.30
2013,08,26,00,47,11.30
2013,08,26,00,48,11.30
2013,08,26,00,49,11.30
2013,08,26,00,50,11.30
2013,08,26,00,51,11.30
2013,08,26,00,52,11.30
2013,08,26,00,53,11.20
2013,08,26,00,54,11.20
2013,08,26,00,55,11.30
2013,08,26,00,56,11.30
2013,08,26,00,57,11.30
2013,08,26,00,58,11.30
2013,08,26,00,59,11.30
2013,08,26,01,00,11.30
2013,08,26,01,01,11.30
2013,08,26,01,02,11.30
2013,08,26,01,03,11.30
2013,08,26,01,04,11.30
2013,08,26,01,05,11.30
2013,08,26,01,06,11.30
2013,08,26,01,07,11.20
2013,08,26,01,08,11.20
2013,08,26,01,09,11.20
2013,08,26,01,10,11.20
2013,08,26,01,11,11.20
2013,08,26,01,12,11.20
2013,08,26,01,13,11.20
2013,08,26,01,14,11.20
2013,08,26,01,15,11.20
2013,08,26,01,16,11.20
2013,08,26,01,17,11.20
2013,08,26,01,18,11.20
2013,08,26,01,19,11.20
2013,08,26,01,20,11.20
2013,08,26,01,21,11.20
2013,08,26,01,22,11.20
2013,08,26,01,23,11.20
2013,08,26,01,24,11.20
2013,08,26,01,25,11.20
2013,08,26,01,26,11.20
2013,08,26,01,27,11.30
2013,08,26,01,28,11.30
2013,08,26,01,29,11.30
2013,08,26,01,30,11.30
2013,08,26,01,31,11.30
2013,08,26,01,32,11.30
2013,08,26,01,33,11.20
2013,08,26,01,34,11.20
2013,08,26,01,35,11.20
2013,08,26,01,36,11.20
2013,08,26,01,37,11.20
2013,08,26,01,38,11.20
2013,08,26,01,39,11.20
2013,08,26,01,40,11.20
2013,08,26,01,41,11.20
2013,08,26,01,42,11.10
2013,08,26,01,43,11.10
2013,08,26,01,44,11.10
2013,08,26,01,45,11.10
2013,08,26,01,46,11.10
2013,08,26,01,47,11.10
2013,08,26,01,48,11.10
2013,08,26,01,49,11.10
2013,08,26,01,50,11.10
2013,08,26,01,51,11.10
2013,08,26,01,52,11.10
2013,08,26,01,53,11.00
2013,08,26,01,54,11.00
2013,08,26,01,55,11.00
2013,08,26,01,56,11.00
2013,08,26,01,57,11.00
2013,08,26,01,58,11.00
2013,08,26,01,59,11.00
2013,08,26,02,00,11.00
2013,08,26,02,01,11.00
2013,08,26,02,02,11.00
2013,08,26,02,03,10.90
2013,08,26,02,04,10.90
2013,08,26,02,05,10.90
2013,08,26,02,06,10.90
2013,08,26,02,07,10.90
2013,08,26,02,08,10.90
2013,08,26,02,09,10.90
2013,08,26,02,10,10.90
2013,08,26,02,11,10.90
2013,08,26,02,12,10.90
2013,08,26,02,13,10.90
2013,08,26,02,14,10.90
2013,08,26,02,15,10.90
2013,08,26,02,16,10.80
2013,08,26,02,17,10.80
2013,08,26,02,18,10.80
2013,08,26,02,19,10.80
2013,08,26,02,20,10.80
2013,08,26,02,21,10.80
2013,08,26,02,22,10.80
2013,08,26,02,23,10.80
2013,08,26,02,24,10.80
2013,08,26,02,25,10.80
2013,08,26,02,26,10.80
2013,08,26,02,27,10.80
2013,08,26,02,28,10.80
2013,08,26,02,29,10.80
2013,08,26,02,30,10.80
2013,08,26,02,31,10.80
2013,08,26,02,32,10.80
2013,08,26,02,33,10.80
2013,08,26,02,34,10.70
2013,08,26,02,35,10.70
2013,08,26,02,36,10.70
2013,08,26,02,37,10.70
2013,08,26,02,38,10.70
2013,08,26,02,39,10.70
2013,08,26,02,40,10.70
2013,08,26,02,41,10.70
2013,08,26,02,42,10.80
2013,08,26,02,43,10.80
2013,08,26,02,44,10.80
2013,08,26,02,45,10.80
2013,08,26,02,46,10.70
2013,08,26,02,47,10.70
2013,08,26,02,48,10.70
2013,08,26,02,49,10.70
2013,08,26,02,50,10.70
2013,08,26,02,51,10.70
2013,08,26,02,52,10.70
2013,08,26,02,53,10.70
2013,08,26,02,54,10.70
2013,08,26,02,55,10.70
2013,08,26,02,56,10.70
2013,08,26,02,57,10.70
2013,08,26,02,58,10.70
2013,08,26,02,59,10.70
2013,08,26,03,00,10.70
2013,08,26,03,01,10.70
2013,08,26,03,02,10.70
2013,08,26,03,03,10.70
2013,08,26,03,04,10.70
2013,08,26,03,05,10.70
2013,08,26,03,06,10.70
2013,08,26,03,07,10.70
2013,08,26,03,08,10.70
2013,08,26,03,09,10.70
2013,08,26,03,10,10.70
2013,08,26,03,11,10.70
2013,08,26,03,12,10.70
2013,08,26,03,13,10.70
2013,08,26,03,14,10.70
2013,08,26,03,15,10.70
2013,08,26,03,16,10.70
2013,08,26,03,17,10.70
2013,08,26,03,18,10.70
2013,08,26,03,19,10.70
2013,08,26,03,20,10.70
2013,08,26,03,21,10.70
2013,08,26,03,22,10.70
2013,08,26,03,23,10.70
2013,08,26,03,24,10.70
2013,08,26,03,25,10.80
2013,08,26,03,26,10.80
2013,08,26,03,27,10.80
2013,08,26,03,28,10.80
2013,08,26,03,29,10.80
2013,08,26,03,30,10.80
2013,08,26,03,31,10.80
2013,08,26,03,32,10.80
2013,08,26,03,33,10.80
2013,08,26,03,34,10.80
2013,08,26,03,35,10.80
2013,08,26,03,36,10.80
2013,08,26,03,37,10.80
2013,08,26,03,38,10.80
2013,08,26,03,39,10.70
2013,08,26,03,40,10.70
2013,08,26,03,41,10.70
2013,08,26,03,42,10.70
2013,08,26,03,43,10.70
2013,08,26,03,44,10.60
2013,08,26,03,45,10.60
2013,08,26,03,46,10.60
2013,08,26,03,47,10.60
2013,08,26,03,48,10.60
2013,08,26,03,49,10.50
2013,08,26,03,50,10.50
2013,08,26,03,51,10.40
2013,08,26,03,52,10.40
2013,08,26,03,53,10.40
2013,08,26,03,54,10.40
2013,08,26,03,55,10.40
2013,08,26,03,56,10.40
2013,08,26,03,57,10.40
2013,08,26,03,58,10.40
2013,08,26,03,59,10.40
2013,08,26,04,00,10.30
2013,08,26,04,01,10.30
2013,08,26,04,02,10.30
2013,08,26,04,03,10.30
2013,08,26,04,04,10.30
2013,08,26,04,05,10.30
2013,08,26,04,06,10.30
2013,08,26,04,07,10.30
2013,08,26,04,08,10.30
2013,08,26,04,09,10.30
2013,08,26,04,10,10.30
2013,08,26,04,11,10.30
2013,08,26,04,12,10.30
2013,08,26,04,13,10.30
2013,08,26,04,14,10.30
2013,08,26,04,15,10.30
2013,08,26,04,16,10.30
2013,08,26,04,17,10.20
2013,08,26,04,18,10.20
2013,08,26,04,19,10.20
2013,08,26,04,20,10.20
2013,08,26,04,21,10.20
2013,08,26,04,22,10.20
2013,08,26,04,23,10.30
2013,08,26,04,24,10.30
2013,08,26,04,25,10.30
2013,08,26,04,26,10.30
2013,08,26,04,27,10.30
2013,08,26,04,28,10.30
2013,08,26,04,29,10.30
2013,08,26,04,30,10.30
2013,08,26,04,31,10.30
2013,08,26,04,32,10.30
2013,08,26,04,33,10.30
2013,08,26,04,34,10.20
2013,08,26,04,35,10.20
2013,08,26,04,36,10.20
2013,08,26,04,37,10.20
2013,08,26,04,38,10.20
2013,08,26,04,39,10.20
2013,08,26,04,40,10.20
2013,08,26,04,41,10.20
2013,08,26,04,42,10.20
2013,08,26,04,43,10.20
2013,08,26,04,44,10.20
2013,08,26,04,45,10.20
2013,08,26,04,46,10.20
2013,08,26,04,47,10.30
2013,08,26,04,48,10.30
2013,08,26,04,49,10.30
2013,08,26,04,50,10.30
2013,08,26,04,51,10.30
2013,08,26,04,52,10.30
2013,08,26,04,53,10.30
2013,08,26,04,54,10.30
2013,08,26,04,55,10.30
2013,08,26,04,56,10.30
2013,08,26,04,57,10.20
2013,08,26,04,58,10.20
2013,08,26,04,59,10.20
2013,08,26,05,00,10.20
2013,08,26,05,01,10.20
2013,08,26,05,02,10.10
2013,08,26,05,03,10.10
2013,08,26,05,04,10.10
2013,08,26,05,05,10.10
2013,08,26,05,06,10.00
2013,08,26,05,07,10.00
2013,08,26,05,08,10.00
2013,08,26,05,09,9.90
2013,08,26,05,10,9.90
2013,08,26,05,11,9.90
2013,08,26,05,12,9.90
2013,08,26,05,13,9.90
2013,08,26,05,14,9.90
2013,08,26,05,15,9.80
2013,08,26,05,16,9.90
2013,08,26,05,17,9.80
2013,08,26,05,18,9.80
2013,08,26,05,19,9.80
2013,08,26,05,20,9.80
2013,08,26,05,21,9.80
2013,08,26,05,22,9.80
2013,08,26,05,23,9.80
2013,08,26,05,24,9.80
2013,08,26,05,25,9.80
2013,08,26,05,26,9.80
2013,08,26,05,27,9.80
2013,08,26,05,28,9.80
2013,08,26,05,29,9.80
2013,08,26,05,30,9.80
2013,08,26,05,31,9.90
2013,08,26,05,32,9.90
2013,08,26,05,33,9.90
2013,08,26,05,34,10.00
2013,08,26,05,35,10.00
2013,08,26,05,36,10.10
2013,08,26,05,37,10.10
2013,08,26,05,38,10.10
2013,08,26,05,39,10.10
2013,08,26,05,40,10.10
2013,08,26,05,41,10.00
2013,08,26,05,42,10.00
2013,08,26,05,43,10.00
2013,08,26,05,44,9.90
2013,08,26,05,45,9.90
2013,08,26,05,46,9.90
2013,08,26,05,47,9.90
2013,08,26,05,48,9.90
2013,08,26,05,49,9.90
2013,08,26,05,50,9.90
2013,08,26,05,51,9.90
2013,08,26,05,52,9.90
2013,08,26,05,53,9.90
2013,08,26,05,54,10.00
2013,08,26,05,55,10.00
2013,08,26,05,56,10.00
2013,08,26,05,57,9.90
2013,08,26,05,58,9.90
2013,08,26,05,59,9.90
2013,08,26,06,00,9.90
2013,08,26,06,01,9.90
2013,08,26,06,02,9.90
2013,08,26,06,03,9.80
2013,08,26,06,04,9.80
2013,08,26,06,05,9.80
2013,08,26,06,06,9.90
2013,08,26,06,07,9.90
2013,08,26,06,08,9.90
2013,08,26,06,09,10.00
2013,08,26,06,10,10.00
2013,08,26,06,11,10.10
2013,08,26,06,12,10.10
2013,08,26,06,13,10.10
2013,08,26,06,14,10.10
2013,08,26,06,15,10.10
2013,08,26,06,16,10.10
2013,08,26,06,17,10.00
2013,08,26,06,18,10.00
2013,08,26,06,19,9.90
2013,08,26,06,20,9.90
2013,08,26,06,21,9.90
2013,08,26,06,22,9.80
2013,08,26,06,23,9.80
2013,08,26,06,24,9.80
2013,08,26,06,25,9.80
2013,08,26,06,26,9.80
2013,08,26,06,27,9.80
2013,08,26,06,28,9.80
2013,08,26,06,29,9.80
2013,08,26,06,30,9.80
2013,08,26,06,31,9.80
2013,08,26,06,32,9.80
2013,08,26,06,33,9.90
2013,08,26,06,34,9.90
2013,08,26,06,35,9.90
2013,08,26,06,36,9.90
2013,08,26,06,37,10.00
2013,08,26,06,38,10.00
2013,08,26,06,39,10.00
2013,08,26,06,40,10.00
2013,08,26,06,41,10.00
2013,08,26,06,42,10.00
2013,08,26,06,43,10.00
2013,08,26,06,44,10.00
2013,08,26,06,45,9.90
2013,08,26,06,46,9.90
2013,08,26,06,47,9.80
2013,08,26,06,48,9.80
2013,08,26,06,49,9.80
2013,08,26,06,50,9.70
2013,08,26,06,51,9.70
2013,08,26,06,52,9.70
2013,08,26,06,53,9.70
2013,08,26,06,54,9.70
2013,08,26,06,55,9.70
2013,08,26,06,56,9.70
2013,08,26,06,57,9.70
2013,08,26,06,58,9.70
2013,08,26,06,59,9.70
2013,08,26,07,00,9.70
2013,08,26,07,01,9.70
2013,08,26,07,02,9.70
2013,08,26,07,03,9.70
2013,08,26,07,04,9.80
2013,08,26,07,05,9.80
2013,08,26,07,06,9.80
2013,08,26,07,07,9.90
2013,08,26,07,08,9.80
2013,08,26,07,09,9.80
2013,08,26,07,10,9.80
2013,08,26,07,11,9.70
2013,08,26,07,12,9.70
2013,08,26,07,13,9.70
2013,08,26,07,14,9.70
2013,08,26,07,15,9.70
2013,08,26,07,16,9.70
2013,08,26,07,17,9.70
2013,08,26,07,18,9.60
2013,08,26,07,19,9.60
2013,08,26,07,20,9.60
2013,08,26,07,21,9.60
2013,08,26,07,22,9.60
2013,08,26,07,23,9.60
2013,08,26,07,24,9.60
2013,08,26,07,25,9.60
2013,08,26,07,26,9.60
2013,08,26,07,27,9.60
2013,08,26,07,28,9.60
2013,08,26,07,29,9.70
2013,08,26,07,30,9.80
2013,08,26,07,31,9.80
2013,08,26,07,32,9.90
2013,08,26,07,33,9.90
2013,08,26,07,34,10.00
2013,08,26,07,35,10.00
2013,08,26,07,36,10.10
2013,08,26,07,37,10.10
2013,08,26,07,38,10.20
2013,08,26,07,39,10.20
2013,08,26,07,40,10.30
2013,08,26,07,41,10.30
2013,08,26,07,42,10.30
2013,08,26,07,43,10.30
2013,08,26,07,44,10.30
2013,08,26,07,45,10.30
2013,08,26,07,46,10.30
2013,08,26,07,47,10.30
2013,08,26,07,48,10.30
2013,08,26,07,49,10.40
2013,08,26,07,50,10.40
2013,08,26,07,51,10.40
2013,08,26,07,52,10.50
2013,08,26,07,53,10.50
2013,08,26,07,54,10.60
2013,08,26,07,55,10.60
2013,08,26,07,56,10.70
2013,08,26,07,57,10.70
2013,08,26,07,58,10.70
2013,08,26,07,59,10.80
2013,08,26,08,00,10.80
2013,08,26,08,01,10.80
2013,08,26,08,02,10.80
2013,08,26,08,03,10.80
2013,08,26,08,04,10.90
2013,08,26,08,05,10.90
2013,08,26,08,06,10.90
2013,08,26,08,07,10.90
2013,08,26,08,08,10.90
2013,08,26,08,09,10.90
2013,08,26,08,10,10.90
2013,08,26,08,11,11.00
2013,08,26,08,12,11.00
2013,08,26,08,13,11.00
2013,08,26,08,14,11.00
2013,08,26,08,15,11.10
2013,08,26,08,16,11.10
2013,08,26,08,17,11.10
2013,08,26,08,18,11.10
2013,08,26,08,19,11.20
2013,08,26,08,20,11.20
2013,08,26,08,21,11.30
2013,08,26,08,22,11.40
2013,08,26,08,23,11.40
2013,08,26,08,24,11.50
2013,08,26,08,25,11.50
2013,08,26,08,26,11.60
2013,08,26,08,27,11.60
2013,08,26,08,28,11.70
2013,08,26,08,29,11.80
2013,08,26,08,30,11.90
2013,08,26,08,31,11.90
2013,08,26,08,32,12.00
2013,08,26,08,33,12.10
2013,08,26,08,34,12.10
2013,08,26,08,35,12.20
2013,08,26,08,36,12.20
2013,08,26,08,37,12.30
2013,08,26,08,38,12.40
2013,08,26,08,39,12.50
2013,08,26,08,40,12.50
2013,08,26,08,41,12.60
2013,08,26,08,42,12.70
2013,08,26,08,43,12.80
2013,08,26,08,44,12.90
2013,08,26,08,45,12.90
2013,08,26,08,46,13.00
2013,08,26,08,47,13.00
2013,08,26,08,48,13.10
2013,08,26,08,49,13.20
2013,08,26,08,50,13.20
2013,08,26,08,51,13.30
2013,08,26,08,52,13.40
2013,08,26,08,53,13.50
2013,08,26,08,54,13.60
2013,08,26,08,55,13.70
2013,08,26,08,56,13.80
2013,08,26,08,57,14.00
2013,08,26,08,58,14.10
2013,08,26,08,59,14.20
2013,08,26,09,00,14.30
2013,08,26,09,01,14.30
2013,08,26,09,02,14.30
2013,08,26,09,03,14.40
2013,08,26,09,04,14.40
2013,08,26,09,05,14.40
2013,08,26,09,06,14.50
2013,08,26,09,07,14.50
2013,08,26,09,08,14.50
2013,08,26,09,09,14.50
2013,08,26,09,10,14.40
2013,08,26,09,11,14.40
2013,08,26,09,12,14.50
2013,08,26,09,13,14.50
2013,08,26,09,14,14.50
2013,08,26,09,15,14.50
2013,08,26,09,16,14.50
2013,08,26,09,17,14.50
2013,08,26,09,18,14.60
2013,08,26,09,19,14.60
2013,08,26,09,20,14.70
2013,08,26,09,21,14.80
2013,08,26,09,22,14.80
2013,08,26,09,23,14.90
2013,08,26,09,24,15.00
2013,08,26,09,25,15.00
2013,08,26,09,26,15.20
2013,08,26,09,27,15.30
2013,08,26,09,28,15.40
2013,08,26,09,29,15.50
2013,08,26,09,30,15.70
2013,08,26,09,31,15.80
2013,08,26,09,32,15.90
2013,08,26,09,33,16.00
2013,08,26,09,34,16.00
2013,08,26,09,35,16.10
2013,08,26,09,36,16.30
2013,08,26,09,37,16.40
2013,08,26,09,38,16.50
2013,08,26,09,39,16.60
2013,08,26,09,40,16.80
2013,08,26,09,41,16.90
2013,08,26,09,42,17.00
2013,08,26,09,43,17.00
2013,08,26,09,44,17.00
2013,08,26,09,45,16.90
2013,08,26,09,46,16.90
2013,08,26,09,47,16.90
2013,08,26,09,48,16.90
2013,08,26,09,49,16.90
2013,08,26,09,50,16.90
2013,08,26,09,51,16.90
2013,08,26,09,52,16.90
2013,08,26,09,53,17.00
2013,08,26,09,54,17.00
2013,08,26,09,55,16.90
2013,08,26,09,56,17.00
2013,08,26,09,57,17.00
2013,08,26,09,58,17.10
2013,08,26,09,59,17.10
2013,08,26,10,00,17.00
2013,08,26,10,01,16.90
2013,08,26,10,02,16.80
2013,08,26,10,03,16.70
2013,08,26,10,04,16.60
2013,08,26,10,05,16.60
2013,08,26,10,06,16.60
2013,08,26,10,07,16.70
2013,08,26,10,08,16.80
2013,08,26,10,09,16.80
2013,08,26,10,10,16.90
2013,08,26,10,11,17.00
2013,08,26,10,12,17.00
2013,08,26,10,13,17.10
2013,08,26,10,14,17.20
2013,08,26,10,15,17.30
2013,08,26,10,16,17.40
2013,08,26,10,17,17.40
2013,08,26,10,18,17.40
2013,08,26,10,19,17.50
2013,08,26,10,20,17.50
2013,08,26,10,21,17.50
2013,08,26,10,22,17.50
2013,08,26,10,23,17.60
2013,08,26,10,24,17.50
2013,08,26,10,25,17.50
2013,08,26,10,26,17.40
2013,08,26,10,27,17.40
2013,08,26,10,28,17.40
2013,08,26,10,29,17.40
2013,08,26,10,30,17.40
2013,08,26,10,31,17.40
2013,08,26,10,32,17.40
2013,08,26,10,33,17.50
2013,08,26,10,34,17.50
2013,08,26,10,35,17.60
2013,08,26,10,36,17.60
2013,08,26,10,37,17.60
2013,08,26,10,38,17.60
2013,08,26,10,39,17.60
2013,08,26,10,40,17.60
2013,08,26,10,41,17.60
2013,08,26,10,42,17.60
2013,08,26,10,43,17.60
2013,08,26,10,44,17.60
2013,08,26,10,45,17.60
2013,08,26,10,46,17.60
2013,08,26,10,47,17.60
2013,08,26,10,48,17.60
2013,08,26,10,49,17.70
2013,08,26,10,50,17.70
2013,08,26,10,51,17.70
2013,08,26,10,52,17.70
2013,08,26,10,53,17.70
2013,08,26,10,54,17.60
2013,08,26,10,55,17.60
2013,08,26,10,56,17.70
2013,08,26,10,57,17.70
2013,08,26,10,58,17.70
2013,08,26,10,59,17.70
2013,08,26,11,00,17.60
2013,08,26,11,01,17.60
2013,08,26,11,02,17.50
2013,08,26,11,03,17.50
2013,08,26,11,04,17.50
2013,08,26,11,05,17.50
2013,08,26,11,06,17.50
2013,08,26,11,07,17.50
2013,08,26,11,08,17.50
2013,08,26,11,09,17.40
2013,08,26,11,10,17.40
2013,08,26,11,11,17.30
2013,08,26,11,12,17.30
2013,08,26,11,13,17.30
2013,08,26,11,14,17.30
2013,08,26,11,15,17.30
2013,08,26,11,16,17.30
2013,08,26,11,17,17.20
2013,08,26,11,18,17.20
2013,08,26,11,19,17.10
2013,08,26,11,20,17.10
2013,08,26,11,21,17.10
2013,08,26,11,22,17.10
2013,08,26,11,23,17.20
2013,08,26,11,24,17.30
2013,08,26,11,25,17.40
2013,08,26,11,26,17.40
2013,08,26,11,27,17.40
2013,08,26,11,28,17.50
2013,08,26,11,29,17.50
2013,08,26,11,30,17.60
2013,08,26,11,31,17.70
2013,08,26,11,32,17.80
2013,08,26,11,33,17.90
2013,08,26,11,34,18.00
2013,08,26,11,35,18.10
2013,08,26,11,36,18.30
2013,08,26,11,37,18.40
2013,08,26,11,38,18.50
2013,08,26,11,39,18.50
2013,08,26,11,40,18.40
2013,08,26,11,41,18.40
2013,08,26,11,42,18.40
2013,08,26,11,43,18.50
2013,08,26,11,44,18.50
2013,08,26,11,45,18.60
2013,08,26,11,46,18.60
2013,08,26,11,47,18.60
2013,08,26,11,48,18.70
2013,08,26,11,49,18.60
2013,08,26,11,50,18.60
2013,08,26,11,51,18.60
2013,08,26,11,52,18.60
2013,08,26,11,53,18.60
2013,08,26,11,54,18.50
2013,08,26,11,55,18.50
2013,08,26,11,56,18.50
2013,08,26,11,57,18.40
2013,08,26,11,58,18.40
2013,08,26,11,59,18.40
2013,08,26,12,00,18.30
2013,08,26,12,01,18.30
2013,08,26,12,02,18.40
2013,08,26,12,03,18.40
2013,08,26,12,04,18.40
2013,08,26,12,05,18.40
2013,08,26,12,06,18.40
2013,08,26,12,07,18.40
2013,08,26,12,08,18.40
2013,08,26,12,09,18.40
2013,08,26,12,10,18.40
2013,08,26,12,11,18.40
2013,08,26,12,12,18.40
2013,08,26,12,13,18.40
2013,08,26,12,14,18.40
2013,08,26,12,15,18.40
2013,08,26,12,16,18.40
2013,08,26,12,17,18.40
2013,08,26,12,18,18.40
2013,08,26,12,19,18.40
2013,08,26,12,20,18.30
2013,08,26,12,21,18.30
2013,08,26,12,22,18.20
2013,08,26,12,23,18.20
2013,08,26,12,24,18.10
2013,08,26,12,25,18.10
2013,08,26,12,26,18.10
2013,08,26,12,27,18.00
2013,08,26,12,28,18.00
2013,08,26,12,29,17.90
2013,08,26,12,30,17.90
2013,08,26,12,31,17.80
2013,08,26,12,32,17.80
2013,08,26,12,33,17.70
2013,08,26,12,34,17.70
2013,08,26,12,35,17.70
2013,08,26,12,36,17.70
2013,08,26,12,37,17.70
2013,08,26,12,38,17.70
2013,08,26,12,39,17.70
2013,08,26,12,40,17.60
2013,08,26,12,41,17.50
2013,08,26,12,42,17.50
2013,08,26,12,43,17.50
2013,08,26,12,44,17.50
2013,08,26,12,45,17.50
2013,08,26,12,46,17.50
2013,08,26,12,47,17.50
2013,08,26,12,48,17.60
2013,08,26,12,49,17.60
2013,08,26,12,50,17.60
2013,08,26,12,51,17.70
2013,08,26,12,52,17.70
2013,08,26,12,53,17.70
2013,08,26,12,54,17.70
2013,08,26,12,55,17.80
2013,08,26,12,56,17.80
2013,08,26,12,57,17.90
2013,08,26,12,58,18.00
2013,08,26,12,59,18.00
2013,08,26,13,00,18.10
2013,08,26,13,01,18.20
2013,08,26,13,02,18.20
2013,08,26,13,03,18.20
2013,08,26,13,04,18.20
2013,08,26,13,05,18.30
2013,08,26,13,06,18.30
2013,08,26,13,07,18.30
2013,08,26,13,08,18.30
2013,08,26,13,09,18.40
2013,08,26,13,10,18.40
2013,08,26,13,11,18.40
2013,08,26,13,12,18.50
2013,08,26,13,13,18.60
2013,08,26,13,14,18.60
2013,08,26,13,15,18.60
2013,08,26,13,16,18.60
2013,08,26,13,17,18.70
2013,08,26,13,18,18.70
2013,08,26,13,19,18.70
2013,08,26,13,20,18.80
2013,08,26,13,21,18.80
2013,08,26,13,22,18.80
2013,08,26,13,23,18.80
2013,08,26,13,24,18.80
2013,08,26,13,25,18.80
2013,08,26,13,26,18.70
2013,08,26,13,27,18.60
2013,08,26,13,28,18.60
2013,08,26,13,29,18.50
2013,08,26,13,30,18.50
2013,08,26,13,31,18.40
2013,08,26,13,32,18.50
2013,08,26,13,33,18.60
2013,08,26,13,34,18.60
2013,08,26,13,35,18.70
2013,08,26,13,36,18.70
2013,08,26,13,37,18.80
2013,08,26,13,38,18.80
2013,08,26,13,39,18.80
2013,08,26,13,40,18.90
2013,08,26,13,41,19.00
2013,08,26,13,42,19.00
2013,08,26,13,43,19.10
2013,08,26,13,44,19.10
2013,08,26,13,45,19.10
2013,08,26,13,46,19.20
2013,08,26,13,47,19.20
2013,08,26,13,48,19.20
2013,08,26,13,49,19.30
2013,08,26,13,50,19.30
2013,08,26,13,51,19.40
2013,08,26,13,52,19.40
2013,08,26,13,53,19.50
2013,08,26,13,54,19.60
2013,08,26,13,55,19.70
2013,08,26,13,56,19.70
2013,08,26,13,57,19.70
2013,08,26,13,58,19.80
2013,08,26,13,59,19.80
2013,08,26,14,00,19.90
2013,08,26,14,01,19.90
2013,08,26,14,02,20.00
2013,08,26,14,03,20.00
2013,08,26,14,04,20.00
2013,08,26,14,05,19.90
2013,08,26,14,06,19.80
2013,08,26,14,07,19.80
2013,08,26,14,08,19.80
2013,08,26,14,09,19.80
2013,08,26,14,10,19.80
2013,08,26,14,11,19.90
2013,08,26,14,12,19.90
2013,08,26,14,13,19.90
2013,08,26,14,14,19.90
2013,08,26,14,15,19.90
2013,08,26,14,16,19.90
2013,08,26,14,17,20.00
2013,08,26,14,18,20.00
2013,08,26,14,19,20.10
2013,08,26,14,20,20.20
2013,08,26,14,21,20.30
2013,08,26,14,22,20.30
2013,08,26,14,23,20.30
2013,08,26,14,24,20.30
2013,08,26,14,25,20.30
2013,08,26,14,26,20.30
2013,08,26,14,27,20.20
2013,08,26,14,28,20.20
2013,08,26,14,29,20.20
2013,08,26,14,30,20.10
2013,08,26,14,31,20.10
2013,08,26,14,32,20.20
2013,08,26,14,33,20.20
2013,08,26,14,34,20.30
2013,08,26,14,35,20.40
2013,08,26,14,36,20.50
2013,08,26,14,37,20.50
2013,08,26,14,38,20.60
2013,08,26,14,39,20.70
2013,08,26,14,40,20.80
2013,08,26,14,41,20.80
2013,08,26,14,42,20.90
2013,08,26,14,43,20.80
2013,08,26,14,44,20.80
2013,08,26,14,45,20.70
2013,08,26,14,46,20.70
2013,08,26,14,47,20.70
2013,08,26,14,48,20.60
2013,08,26,14,49,20.70
2013,08,26,14,50,20.70
2013,08,26,14,51,20.70
2013,08,26,14,52,20.80
2013,08,26,14,53,20.80
2013,08,26,14,54,20.90
2013,08,26,14,55,21.00
2013,08,26,14,56,21.10
2013,08,26,14,57,21.10
2013,08,26,14,58,21.20
2013,08,26,14,59,21.20
2013,08,26,15,00,21.20
2013,08,26,15,01,21.10
2013,08,26,15,02,21.10
2013,08,26,15,03,21.00
2013,08,26,15,04,20.90
2013,08,26,15,05,20.80
2013,08,26,15,06,20.70
2013,08,26,15,07,20.60
2013,08,26,15,08,20.60
2013,08,26,15,09,20.50
2013,08,26,15,10,20.40
2013,08,26,15,11,20.30
2013,08,26,15,12,20.30
2013,08,26,15,13,20.10
2013,08,26,15,14,20.00
2013,08,26,15,15,19.90
2013,08,26,15,16,19.80
2013,08,26,15,17,19.70
2013,08,26,15,18,19.70
2013,08,26,15,19,19.60
2013,08,26,15,20,19.60
2013,08,26,15,21,19.60
2013,08,26,15,22,19.60
2013,08,26,15,23,19.60
2013,08,26,15,24,19.50
2013,08,26,15,25,19.30
2013,08,26,15,26,19.10
2013,08,26,15,27,18.90
2013,08,26,15,28,18.70
2013,08,26,15,29,18.50
2013,08,26,15,30,18.30
2013,08,26,15,31,18.10
2013,08,26,15,32,18.00
2013,08,26,15,33,17.80
2013,08,26,15,34,17.70
2013,08,26,15,35,17.60
2013,08,26,15,36,17.50
2013,08,26,15,37,17.30
2013,08,26,15,38,17.30
2013,08,26,15,39,17.20
2013,08,26,15,40,17.20
2013,08,26,15,41,17.10
2013,08,26,15,42,17.10
2013,08,26,15,43,17.10
2013,08,26,15,44,17.10
2013,08,26,15,45,17.10
2013,08,26,15,46,17.10
2013,08,26,15,47,17.20
2013,08,26,15,48,17.20
2013,08,26,15,49,17.20
2013,08,26,15,50,17.30
2013,08,26,15,51,17.30
2013,08,26,15,52,17.40
2013,08,26,15,53,17.40
2013,08,26,15,54,17.50
2013,08,26,15,55,17.50
2013,08,26,15,56,17.60
2013,08,26,15,57,17.60
2013,08,26,15,58,17.70
2013,08,26,15,59,17.70
2013,08,26,16,00,17.70
2013,08,26,16,01,17.80
2013,08,26,16,02,17.80
2013,08,26,16,03,17.80
2013,08,26,16,04,17.80
2013,08,26,16,05,17.80
2013,08,26,16,06,17.80
2013,08,26,16,07,17.90
2013,08,26,16,08,17.90
2013,08,26,16,09,17.90
2013,08,26,16,10,17.90
2013,08,26,16,11,17.90
2013,08,26,16,12,18.00
2013,08,26,16,13,18.00
2013,08,26,16,14,18.00
2013,08,26,16,15,18.00
2013,08,26,16,16,18.00
2013,08,26,16,17,18.00
2013,08,26,16,18,17.90
2013,08,26,16,19,17.90
2013,08,26,16,20,17.90
2013,08,26,16,21,17.90
2013,08,26,16,22,18.00
2013,08,26,16,23,18.00
2013,08,26,16,24,18.00
2013,08,26,16,25,18.00
2013,08,26,16,26,18.00
2013,08,26,16,27,18.00
2013,08,26,16,28,18.10
2013,08,26,16,29,18.10
2013,08,26,16,30,18.00
2013,08,26,16,31,18.00
2013,08,26,16,32,17.90
2013,08,26,16,33,17.90
2013,08,26,16,34,17.80
2013,08,26,16,35,17.80
2013,08,26,16,36,17.70
2013,08,26,16,37,17.70
2013,08,26,16,38,17.60
2013,08,26,16,39,17.60
2013,08,26,16,40,17.60
2013,08,26,16,41,17.60
2013,08,26,16,42,17.60
2013,08,26,16,43,17.60
2013,08,26,16,44,17.60
2013,08,26,16,45,17.60
2013,08,26,16,46,17.60
2013,08,26,16,47,17.60
2013,08,26,16,48,17.60
2013,08,26,16,49,17.70
2013,08,26,16,50,17.70
2013,08,26,16,51,17.70
2013,08,26,16,52,17.80
2013,08,26,16,53,17.80
2013,08,26,16,54,17.80
2013,08,26,16,55,17.90
2013,08,26,16,56,17.90
2013,08,26,16,57,18.00
2013,08,26,16,58,18.00
2013,08,26,16,59,18.10
2013,08,26,17,00,18.20
2013,08,26,17,01,18.20
2013,08,26,17,02,18.20
2013,08,26,17,03,18.30
2013,08,26,17,04,18.30
2013,08,26,17,05,18.30
2013,08,26,17,06,18.40
2013,08,26,17,07,18.40
2013,08,26,17,08,18.40
2013,08,26,17,09,18.50
2013,08,26,17,10,18.50
2013,08,26,17,11,18.60
2013,08,26,17,12,18.60
2013,08,26,17,13,18.60
2013,08,26,17,14,18.70
2013,08,26,17,15,18.70
2013,08,26,17,16,18.70
2013,08,26,17,17,18.80
2013,08,26,17,18,18.80
2013,08,26,17,19,18.90
2013,08,26,17,20,18.90
2013,08,26,17,21,18.90
2013,08,26,17,22,18.90
2013,08,26,17,23,18.90
2013,08,26,17,24,19.00